Regional Weather Roundup
Issued by NWS

Home | Current Version | Previous Version | Graphics & Text | Print | Product List | Glossary On
Versions: 1 2 3 4 5 6 7 8 9 10 11 12 13 14 15 16 17 18 19 20 21 22 23 24 25 26 27 28 29 30 31 32 33 34 35 36 37 38 39 40 41 42 43 44 45 46 47 48 49 50
000
ASUS43 KOAX 261102
RWRNE

WEATHER ROUNDUP FOR NEBRASKA
NATIONAL WEATHER SERVICE OMAHA NE
500 AM CST MON JAN 26 2015

NOTES: SATELLITE DATA IS BEING USED TO AUGMENT CLOUD COVER ABOVE
       12000 FEET.
       "FAIR" INDICATES FEW OR NO CLOUDS BELOW 12,000 FEET WITH NO
       SIGNIFICANT WEATHER AND/OR OBSTRUCTIONS TO VISIBILITY.

  * THESE STATIONS DO NOT REPORT WEATHER SUCH AS RAIN...SNOW OR FOG.

NEZ001>004-019>022-054>056-261200-
NEBRASKA PANHANDLE

CITY           SKY/WX    TMP DP  RH WIND       PRES   REMARKS
SCOTTSBLUFF    MOCLDY    37  30  75 W9        30.11F WCI  30
ALLIANCE       PTCLDY    39  30  70 NW18      30.06S WCI  30
CHADRON        PTCLDY    41  30  65 W9        30.07S
SIDNEY         PTCLDY    41  29  62 W13       30.11S
$$

NEZ057>060-069>072-079>082-261200-
SOUTHWEST NEBRASKA

CITY           SKY/WX    TMP DP  RH WIND       PRES   REMARKS
NORTH PLATTE   CLEAR     29  26  89 W9        30.02S WCI  20
IMPERIAL       PTCLDY    43  30  60 NW14      30.06S
MCCOOK         CLEAR     38  30  73 W14       30.03S WCI  30
$$

NEZ005>010-023>029-035>040-094-261200-
NORTH CENTRAL NEBRASKA

CITY           SKY/WX    TMP DP  RH WIND       PRES   REMARKS
VALENTINE      CLEAR     37  31  78 W13       29.95R WCI  29
BROKEN BOW     CLEAR     45  32  60 NW17      29.94F
ORD            CLEAR     25  22  88 NW3       29.91F
$$

NEZ041-046>049-061>064-073>077-083>087-261200-
SOUTH CENTRAL NEBRASKA

CITY           SKY/WX    TMP DP  RH WIND       PRES   REMARKS
GRAND ISLAND   CLEAR     33  26  75 W15       29.93F WCI  23
HASTINGS       CLEAR     30  23  75 SW8       29.94F WCI  22
KEARNEY *      CLEAR     36  27  69 W7        29.96F WCI  30
$$

NEZ011>018-030>034-042>045-261200-
NORTHEAST NEBRASKA

CITY           SKY/WX    TMP DP  RH WIND       PRES   REMARKS
NORFOLK        PTCLDY    35  29  78 SW10      29.86F WCI  27
COLUMBUS *     PTCLDY    36  25  64 W13       29.91F WCI  27
TEKAMAH        CLEAR     28  26  92 SE8       29.90F WCI  20
$$

NEZ050>053-065>068-078-088>093-261200-
SOUTHEAST NEBRASKA

CITY           SKY/WX    TMP DP  RH WIND       PRES   REMARKS
LINCOLN        CLEAR     29  26  89 S5        29.95F WCI  24
OMAHA EPPLEY   CLEAR     27  25  92 SE8       29.95F WCI  19
FALLS CITY     CLEAR     29  26  89 SW6       29.99F WCI  23
$$

NEZ044-045-051>053-067-261200-
OMAHA AREA

CITY           SKY/WX    TMP DP  RH WIND       PRES   REMARKS
OMAHA EPPLEY   CLEAR     27  25  92 SE8       29.95F WCI  19
OFFUTT AFB     CLEAR     22  21  94 CALM      29.95F
$$


USA.gov is the U.S. government's official web portal to all federal, state and local government web resources and services.